Hot Springs, VA

3:08 PM EST on January 19, 2017 (GMT -0500)
Ingalls

Weather History for KHSP - October, 2014

Change the Weather History Date:

Wednesday, October 22, 2014

  Actual Average Record
Temperature  
Mean Temperature 42 °F -  
Max Temperature 46 °F 55 °F 71 °F (2001)
Min Temperature 38 °F 40 °F 26 °F (1997)
Degree Days  
Heating Degree Days 23    
Moisture  
Dew Point 38 °F    
Average Humidity 88    
Maximum Humidity 98    
Minimum Humidity 71    
Precipitation  
Precipitation 0.00 in - - ()
Sea Level Pressure  
Sea Level Pressure 30.00 in    
Wind  
Wind Speed 15 mph (NW)    
Max Wind Speed 23 mph    
Max Gust Speed 31 mph    
Visibility 10 miles    
Events      
Averages and records for this station are not official NWS values.
T = Trace of Precipitation, MM = Missing Value Source: NWS Daily Summary

Daily Weather History Graph

Daily Weather History Graph

Search for Another Location

Airport or City:

Trip Planner

Search our weather history database for the weather conditions in past years. The results will help you decide how hot, cold, wet, or windy it might be!

Date:

Astronomy

Oct. 22, 2014 Rise Set
Actual Time 7:34 AM EDT 6:32 PM EDT
Civil Twilight 7:07 AM EDT 6:59 PM EDT
Nautical Twilight 6:37 AM EDT 7:29 PM EDT
Astronomical Twilight 6:06 AM EDT 8:00 PM EDT
Moon 6:15 AM EDT (10/22) 5:57 PM EDT (10/22)
Length of Visible Light 11h 51m
Length of Day
10h 57m
Waning Crescent, 2% of the Moon is Illuminated
Oct 22
Waning Crescent
Oct 23
New
Oct 30
First Quarter
Nov 6
Full
Nov 14
Last Quarter

Hourly Weather History & Observations

Time (EDT) Temp. Windchill Dew Point Humidity Pressure Visibility Wind Dir Wind Speed Gust Speed Precip Events Conditions
12:15 AM 39.2 °F 30.8 °F 37.8 °F 95% 29.94 in 10.0 mi NW 15.0 mph 18.4 mph N/A   Overcast
12:35 AM 39.2 °F 32.5 °F 37.9 °F 95% 29.93 in 10.0 mi NW 10.4 mph 21.9 mph N/A   Overcast
12:55 AM 39.2 °F 32.0 °F 38.1 °F 96% 29.93 in 10.0 mi NW 11.5 mph 20.7 mph N/A   Overcast
1:15 AM 39.2 °F 30.2 °F 38.3 °F 97% 29.93 in 10.0 mi WNW 17.3 mph 21.9 mph N/A   Overcast
1:35 AM 38.8 °F 32.1 °F 38.3 °F 98% 29.93 in 7.0 mi NW 10.4 mph 17.3 mph N/A   Overcast
1:55 AM 38.8 °F 31.6 °F 38.3 °F 98% 29.93 in 10.0 mi WNW 11.5 mph - N/A   Overcast
2:15 AM 39.0 °F 29.6 °F 37.8 °F 95% 29.92 in 10.0 mi WNW 18.4 mph 25.3 mph N/A   Overcast
2:35 AM 39.0 °F 30.6 °F 37.6 °F 95% 29.93 in 10.0 mi WNW 15.0 mph 23.0 mph N/A   Overcast
2:55 AM 38.8 °F 30.4 °F 37.4 °F 95% 29.92 in 10.0 mi WNW 15.0 mph 20.7 mph N/A   Overcast
3:15 AM 38.8 °F 29.7 °F 37.4 °F 95% 29.92 in 10.0 mi NW 17.3 mph 25.3 mph N/A   Overcast
3:35 AM 38.8 °F 30.8 °F 37.4 °F 95% 29.92 in 10.0 mi NW 13.8 mph 23.0 mph N/A   Overcast
3:55 AM 38.8 °F 31.2 °F 37.4 °F 95% 29.92 in 10.0 mi NW 12.7 mph 20.7 mph N/A   Overcast
4:15 AM 38.7 °F 30.9 °F 37.0 °F 94% 29.92 in 10.0 mi NW 12.7 mph 19.6 mph N/A   Overcast
4:35 AM 38.7 °F 29.8 °F 37.4 °F 95% 29.93 in 10.0 mi NW 16.1 mph 21.9 mph N/A   Overcast
4:55 AM 38.5 °F 29.6 °F 37.4 °F 96% 29.93 in 10.0 mi NW 16.1 mph 24.2 mph N/A   Overcast
5:15 AM 38.5 °F 29.2 °F 37.4 °F 96% 29.93 in 10.0 mi WNW 17.3 mph 23.0 mph N/A   Overcast
5:35 AM 38.5 °F 29.9 °F 37.2 °F 95% 29.94 in 10.0 mi NW 15.0 mph 23.0 mph N/A   Overcast
5:55 AM 38.5 °F 29.6 °F 36.9 °F 94% 29.94 in 10.0 mi NW 16.1 mph 25.3 mph N/A   Overcast
6:15 AM 38.5 °F 29.9 °F 36.9 °F 94% 29.94 in 10.0 mi NW 15.0 mph 25.3 mph N/A   Overcast
6:35 AM 38.3 °F 29.3 °F 36.9 °F 95% 29.95 in 10.0 mi WNW 16.1 mph - N/A   Overcast
6:55 AM 38.3 °F 28.4 °F 36.9 °F 95% 29.97 in 10.0 mi NNW 19.6 mph 27.6 mph N/A   Overcast
7:15 AM 38.3 °F 29.0 °F 37.0 °F 95% 29.97 in 10.0 mi NW 17.3 mph 21.9 mph N/A   Overcast
7:35 AM 38.3 °F 29.3 °F 37.0 °F 95% 29.97 in 10.0 mi NW 16.1 mph 25.3 mph N/A   Overcast
7:55 AM 38.5 °F 29.9 °F 37.4 °F 96% 29.98 in 10.0 mi NW 15.0 mph 24.2 mph N/A   Overcast
8:15 AM 38.7 °F 30.5 °F 37.4 °F 95% 29.99 in 10.0 mi NW 13.8 mph 20.7 mph N/A   Overcast
8:35 AM 38.8 °F 31.6 °F 37.4 °F 95% 30.00 in 10.0 mi WNW 11.5 mph 17.3 mph N/A   Overcast
8:55 AM 39.2 °F 30.5 °F 37.6 °F 94% 30.01 in 10.0 mi NW 16.1 mph 21.9 mph N/A   Overcast
9:15 AM 41.4 °F 33.6 °F 38.3 °F 89% 30.02 in 10.0 mi NW 15.0 mph 24.2 mph N/A   Overcast
9:35 AM 41.0 °F 34.3 °F 38.3 °F 90% 30.02 in 10.0 mi NW 11.5 mph 20.7 mph N/A   Overcast
9:55 AM 40.8 °F 32.9 °F 38.5 °F 91% 30.01 in 10.0 mi NW 15.0 mph 21.9 mph N/A   Overcast
10:15 AM 41.5 °F 33.5 °F 38.7 °F 89% 30.01 in 10.0 mi NW 16.1 mph 23.0 mph N/A   Overcast
10:35 AM 41.7 °F 34.1 °F 38.8 °F 89% 30.02 in 10.0 mi NW 15.0 mph 23.0 mph N/A   Overcast
10:55 AM 42.8 °F 34.5 °F 38.8 °F 86% 30.02 in 10.0 mi NW 18.4 mph 24.2 mph N/A   Overcast
11:15 AM 43.9 °F 36.8 °F 39.0 °F 83% 30.02 in 10.0 mi WNW 15.0 mph 20.7 mph N/A   Overcast
11:35 AM 44.6 °F 40.2 °F 39.2 °F 81% 30.03 in 10.0 mi WNW 8.1 mph 19.6 mph N/A   Overcast
11:55 AM 44.1 °F 37.4 °F 38.7 °F 81% 30.04 in 10.0 mi NNW 13.8 mph - N/A   Overcast
12:15 PM 44.2 °F 37.0 °F 38.1 °F 79% 30.04 in 10.0 mi NW 16.1 mph 25.3 mph N/A   Overcast
12:35 PM 45.1 °F 37.9 °F 38.3 °F 77% 30.03 in 10.0 mi NNW 17.3 mph 23.0 mph N/A   Overcast
12:55 PM 44.8 °F 38.0 °F 37.9 °F 77% 30.03 in 10.0 mi NNW 15.0 mph 23.0 mph N/A   Overcast
1:15 PM 44.8 °F 38.0 °F 37.6 °F 76% 30.03 in 10.0 mi NW 15.0 mph 21.9 mph N/A   Overcast
1:35 PM 46.0 °F 38.8 °F 37.6 °F 72% 30.03 in 10.0 mi NNW 18.4 mph 24.2 mph N/A   Overcast
1:55 PM 45.5 °F 38.6 °F 36.9 °F 72% 30.02 in 10.0 mi NW 16.1 mph 29.9 mph N/A   Overcast
2:15 PM 45.9 °F 39.1 °F 36.9 °F 71% 30.03 in 10.0 mi NW 16.1 mph 20.7 mph N/A   Overcast
2:35 PM 45.1 °F 37.3 °F 36.9 °F 73% 30.02 in 10.0 mi NW 19.6 mph 31.1 mph N/A   Overcast
2:55 PM 44.4 °F 36.9 °F 37.0 °F 75% 30.03 in 10.0 mi NW 17.3 mph 25.3 mph N/A   Overcast
3:15 PM 44.8 °F 37.1 °F 37.2 °F 75% 30.03 in 10.0 mi NW 18.4 mph 26.5 mph N/A   Mostly Cloudy
3:35 PM 43.7 °F 36.0 °F 37.0 °F 77% 30.04 in - NNW 17.3 mph - N/A   Unknown
3:55 PM 43.0 °F 35.4 °F 37.4 °F 81% 30.04 in 10.0 mi NNW 16.1 mph 24.2 mph N/A   Overcast
4:15 PM 42.8 °F 34.5 °F 37.4 °F 81% 30.04 in 10.0 mi NW 18.4 mph 26.5 mph N/A   Overcast
4:35 PM 43.2 °F 35.3 °F 37.0 °F 79% 30.04 in 10.0 mi NW 17.3 mph 25.3 mph N/A   Overcast
4:55 PM 43.3 °F 35.8 °F 36.9 °F 78% 30.04 in 10.0 mi NW 16.1 mph 26.5 mph N/A   Overcast
5:15 PM 43.0 °F 35.1 °F 37.0 °F 80% 30.04 in 10.0 mi NW 17.3 mph 25.3 mph N/A   Overcast
5:35 PM 43.0 °F 35.4 °F 37.4 °F 81% 30.04 in 10.0 mi NW 16.1 mph 23.0 mph N/A   Overcast
5:55 PM 42.8 °F 35.1 °F 37.4 °F 81% 30.04 in 10.0 mi NNW 16.1 mph 24.2 mph N/A   Overcast
6:15 PM 42.3 °F 33.8 °F 37.4 °F 83% 30.04 in 10.0 mi NW 18.4 mph 28.8 mph N/A   Overcast
6:35 PM 41.9 °F 32.8 °F 37.4 °F 84% 30.04 in 10.0 mi NW 20.7 mph 25.3 mph N/A   Overcast
6:55 PM 41.9 °F 32.8 °F 37.4 °F 84% 30.04 in 10.0 mi NW 20.7 mph 27.6 mph N/A   Overcast
7:15 PM 41.5 °F 33.5 °F 37.4 °F 85% 30.03 in 10.0 mi NW 16.1 mph 26.5 mph N/A   Overcast
7:35 PM 41.4 °F 33.3 °F 37.4 °F 86% 30.03 in 10.0 mi NW 16.1 mph 26.5 mph N/A   Overcast
7:55 PM 41.2 °F 33.7 °F 37.4 °F 86% 30.02 in 10.0 mi NW 13.8 mph 26.5 mph N/A   Overcast
8:15 PM 41.0 °F 32.2 °F 37.0 °F 86% 30.02 in 10.0 mi WNW 18.4 mph 26.5 mph N/A   Overcast
8:35 PM 41.0 °F 32.2 °F 36.9 °F 85% 30.03 in 10.0 mi NW 18.4 mph 28.8 mph N/A   Overcast
8:55 PM 41.0 °F 33.9 °F 37.0 °F 86% 30.05 in 10.0 mi NW 12.7 mph 20.7 mph N/A   Overcast
9:15 PM 40.8 °F 31.7 °F 37.0 °F 86% 30.05 in 10.0 mi NW 19.6 mph 31.1 mph N/A   Overcast
9:35 PM 40.3 °F 30.2 °F 37.4 °F 89% 30.06 in 10.0 mi NW 23.0 mph 31.1 mph N/A   Overcast
9:55 PM 40.3 °F 31.3 °F 37.4 °F 89% 30.06 in 10.0 mi NNW 18.4 mph 29.9 mph N/A   Overcast
10:15 PM 40.3 °F 31.6 °F 37.4 °F 89% 30.05 in 10.0 mi NW 17.3 mph 24.2 mph N/A   Overcast
10:35 PM 40.1 °F 31.3 °F 37.0 °F 89% 30.06 in 10.0 mi NW 17.3 mph 25.3 mph N/A   Overcast
10:55 PM 39.9 °F 31.1 °F 36.5 °F 88% 30.05 in 10.0 mi NW 17.3 mph 29.9 mph N/A   Overcast
11:15 PM 39.6 °F 31.0 °F 36.7 °F 89% 30.05 in 10.0 mi WNW 16.1 mph 26.5 mph N/A   Overcast
11:35 PM 39.6 °F 30.0 °F 37.2 °F 91% 30.05 in 10.0 mi WNW 19.6 mph 24.2 mph N/A   Overcast
11:55 PM 39.4 °F 30.7 °F 37.0 °F 91% 30.04 in 10.0 mi WNW 16.1 mph 21.9 mph N/A   Overcast